Location: Baller�as
(41.9020°N, 0.1554°W)
Time: 11:09:15
(UTC+00:00)

Cosmos 1140 Rocket - Pass Details

Date: 10 August 2020
Orbit: 745 x 767 km, 74.1° (Epoch: 21 September)

Event Time Altitude Azimuth Distance (km) Brightness Sun altitude
Rises 21:01:41 0° 213° (SSW) 3,218 6.6 -18.8°
Reaches altitude 10° 21:04:07 10° 218° (SW) 2,297 5.9 -19.2°
Maximum altitude 21:09:11 50° 294° (WNW) 973 4.4 -19.9°
Drops below altitude 10° 21:14:17 10° 10° (N) 2,313 6.4 -20.5°
Sets 21:16:45 0° 15° (NNE) 3,242 7.2 -20.9°
